Miscellaneous Local Product
Issued by NWS Hastings, NE

Home | Current Version | Previous Version | Graphics & Text | Print | Product List | Glossary On
Versions: 1 2 3 4 5 6 7 8 9 10 11 12 13 14 15 16 17 18 19 20 21 22 23 24 25 26 27 28 29 30 31 32 33 34 35 36 37 38 39 40 41 42 43 44 45 46 47 48 49 50
000
AXUS43 KGID 281202
MISGRI

GID CWA HOURLY WEATHER ROUNDUP
NATIONAL WEATHER SERVICE HASTINGS NE
700 AM CDT WED JUN 28 2017

NOTE: "FAIR" INDICATES FEW OR NO CLOUDS BELOW 12,000 FEET WITH NO
SIGNIFICANT WEATHER AND/OR OBSTRUCTIONS TO VISIBILITY.

...SOUTH CENTRAL NEBRASKA...

CITY           SKY/WX    TMP DP  RH WIND       PRES   REMARKS
GRAND ISLAND   CLOUDY    66  66 100 S6        29.71F
HASTINGS       PTCLDY    69  62  78 S5        29.73R
KEARNEY        CLEAR     64  61  88 CALM      29.73S
ORD            CLOUDY    62  59  90 NW3       29.72R
YORK           MOCLDY    68  66  94 S10       29.72S
AURORA         PTCLDY    67  67  97 S9        29.72R
LEXINGTON      CLEAR     62  60  94 NW3       29.75R FOG
HOLDREGE       CLOUDY    65  59  80 CALM      29.74R
HEBRON         CLOUDY    74  67  78 S7        29.73R

...NEBRASKA PANHANDLE...

CITY           SKY/WX    TMP DP  RH WIND       PRES   REMARKS
CHADRON        CLEAR     57  50  77 W3        29.83R
ALLIANCE       CLEAR     51  48  89 W3        29.84S
SCOTTSBLUFF    CLEAR     53  47  79 NW7       29.88R
SIDNEY         CLEAR     53  46  77 W10       29.90R

...WESTERN AND NORTH CENTRAL NEBRASKA...

CITY           SKY/WX    TMP DP  RH WIND       PRES   REMARKS
VALENTINE      CLEAR     60  52  74 W9        29.73R
AINSWORTH      CLEAR     62  56  82 W13       29.71S
ONEILL         CLOUDY    61  58  92 S8        29.70R
BROKEN BOW     CLEAR     62  58  86 NW8       29.74R
IMPERIAL       CLEAR     58  52  80 NW13      29.81R
NORTH PLATTE   CLEAR     59  57  93 W3        29.77R
MCCOOK         CLEAR     64  60  87 SW8       29.76S

...EASTERN NEBRASKA...

CITY           SKY/WX    TMP DP  RH WIND       PRES   REMARKS
NORFOLK        CLOUDY    66  62  87 S12       29.69R
SO SIOUX CITY  MOSUNNY   67  63  87 S7        29.69R
TEKAMAH        CLOUDY    66  62  87 S12       29.68F
COLUMBUS       MOCLDY    67  64  90 S8        29.70S
ALBION         CLOUDY    67  62  84 S7        29.70R
OMAHA EPPLEY   CLOUDY    68  62  81 S18G24    29.69F
OFFUTT AFB     PTSUNNY   66  63  91 S8        29.72F
MILLARD        PTSUNNY   68  66  93 S12       29.71F
LINCOLN        CLOUDY    71  68  90 S12       29.73R
NEBRASKA CITY  CLOUDY    65  65 100 S8        29.77R
BEATRICE       CLOUDY    72  69  91 SE9       29.75R
FALLS CITY     LGT RAIN  66  65  96 E9G23     29.79F

...NORTHERN KANSAS...

CITY           SKY/WX    TMP DP  RH WIND       PRES   REMARKS
GOODLAND       CLEAR     60  58  92 NW7       29.83R
HILL CITY      CLEAR     70  64  81 S12       29.74S
NORTON         SUNNY     70  57  64 S10G21    29.73R
PHILLIPSBURG   CLEAR     72  59  64 S14       29.72S
SMITH CENTER   CLEAR     72  59  64 S16       29.71R
HAYS           PTCLDY    70  65  84 SE14      29.76F
RUSSELL        MOCLDY    69  65  86 SE20      29.75F
CONCORDIA      CLOUDY    72  64  76 S13       29.74R
SALINA         MOCLDY    74  67  78 SE20      29.78F
TOPEKA         CLOUDY    74  68  81 S14G22    29.84R



USA.gov is the U.S. government's official web portal to all federal, state and local government web resources and services.